OPS 4682 DEB, 18675

Orbit data source: Space-Track

OPS 4682 DEB, 18675 is space debris in LEO originally from a launch on Sat, 03 Apr 1965 UTC launched from the Air Force Western Test Range (AFWTR). Debris objects in space refer to the collection of defunct objects orbiting the Earth. Examples of debris include non-operational satellites, rocket bodies, and fragments generated from explosions, collisions, or faulty payload assembly.

Loading next visibility...
Identifier
18675, 1965-027AH
Orbit
LEO
Last TLE update
15 hours ago
Origin
Manufacturer
Unknown
Mission
Spacecraft
Bus & Motor
Unknown
Mass
Unknown
Launch date (UTC)
1965-04-03 (60 years ago)
Launch vehicle
Unknown
Launch site
Air Force Western Test Range (AFWTR)
Object type
Payload
Rocket body
Debris
Shape & HBR
Unknown
Radar Cross Section
Small (<0.1 m²)

Expand to show TLE details & history

TLE from 15 hours ago
0 OPS 4682 DEB
1 18675U 65027AH  25128.62205597  .00000151  00000-0  48040-3 0  9997
2 18675  90.2453 345.4312 0024507 260.4890 157.5932 12.99625174806047
Epoch: 2025-05-08T14:55Z
Definitive object data (Epoch: 2025-05-08T14:55:45.635Z)
Latitude
58.27708°
Longitude
-105.5937°
Altitude
1,290.775 km
Speed
7.208 km/s
True Right ascension
23h 00m 08s
True Declination
58° 08' 02"
Sunlit
Object was in daylight at TLE epoch
Visualization TLE readout
Latitude
-1.62871°
Longitude
74.80874°
Altitude
1,262.497 km
Speed
7.226 km/s
Apparent Right ascension
08h 22m 16s
Apparent Declination
-35° 27' 47"
Sunlit
Object is in daylight
Visualization observer readout
Local Sidereal Time
14:29:35
Azimuth
242.25° WSW
Elevation
-23.093°
Doppler factor
1
Orbital elements
Apogee altitude
1,279.404 km
Perigee altitude
1,241.963 km
Semi-major axis
7,638.82 km
Eccentricity
0.0024507
Inclination
90.2453°
RAAN
345.4312°
Arg. of periapsis
260.489°
True anomaly
157.69994°
Mean anomaly
157.5932°
Eccentric anomaly
157.6466°
Mean motion
3.2509 °/min
BSTAR
0.0004804
Orbital period
110.74 mins
Loading maneuver chart data...
Loading SW <> Apogee altitude chart data...
Loading historical data...
Loading historical data...
Loading historical data...
Loading historical data...
Loading historical data...
Loading historical data...
Loading historical data...

OPS 4682 DEB Visibility forecast

Observer location: undefined°, undefined°

Span
Click to sort rows by Start time (UTC) header in descending order
Start Az.
Max El. time (UTC)
Max El. Az.
Max El.
End time (UTC)
End Az.
8 mins2025-05-09 12:57:45.901Z102.023° ESE2025-05-09 13:01:45.901Z69.399° E15.704°2025-05-09 13:05:45.901Z36.054° NE
14 mins2025-05-09 14:44:45.901Z175.752° S2025-05-09 14:51:45.901Z351.935° N44.706°2025-05-09 14:58:45.901Z357.519° N
6 mins2025-05-09 16:40:45.901Z266.664° W2025-05-09 16:42:45.901Z284.037° WNW14.79°2025-05-09 16:46:45.901Z316.888° NNW
13 mins2025-05-10 02:21:45.901Z11.819° NNE2025-05-10 02:27:45.901Z99.122° ESE42.061°2025-05-10 02:34:45.901Z170.907° S
10 mins2025-05-10 04:12:45.901Z330.961° NNW2025-05-10 04:17:45.901Z283.856° WNW21.809°2025-05-10 04:22:45.901Z240.69° WSW
|